EW6456 Weather Reports


Display with metric or nautical units.
time (UTC)temp
F
wind
direction
speed
MPH
gust
MPH
rain 1hr
in
rain 24hr
in
rain mn
in
humidity
%
barometer
mb
20260831214515 77 169 0.0 0.0 0.00 0.00 0.00 29 1012.6
20260831213014 77 297 0.0 0.0 0.00 0.00 0.00 29 1012.8
20260831211541 76 136 0.0 0.0 0.00 0.00 0.00 28 1013.0
20260831210041 76 219 0.0 0.0 0.00 0.00 0.00 30 1013.2
20260831204537 75 226 1.0 8.0 0.00 0.00 0.00 30 1013.4
20260831203032 76 224 0.0 4.0 0.00 0.00 0.00 31 1013.5
20260831201529 75 201 0.0 0.0 0.00 0.00 0.00 33 1013.5
20260831200033 75 224 0.0 1.0 0.00 0.00 0.00 30 1013.6
20260831194522 74 348 0.0 4.0 0.00 0.00 0.00 31 1013.8
20260831193024 73 283 0.0 2.0 0.00 0.01 0.00 32 1014.0
20260831191515 73 285 0.0 1.0 0.00 0.01 0.00 32 1014.1
20260831190013 72 310 0.0 10.0 0.00 0.01 0.00 31 1014.1
20260831184507 72 302 0.0 7.0 0.00 0.01 0.00 32 1014.3
20260831183004 71 274 0.0 2.0 0.00 0.14 0.00 33 1014.5
20260831181502 71 27 0.0 7.0 0.00 0.14 0.00 35 1014.6
20260831180058 70 311 1.0 11.0 0.00 0.14 0.00 35 1014.8
20260831174555 70 300 0.0 9.0 0.00 0.14 0.00 35 1014.8
20260831173053 70 309 2.0 14.0 0.00 0.36 0.00 35 1014.8
20260831171552 69 304 0.0 9.0 0.00 0.36 0.00 35 1014.7
20260831170048 69 323 0.0 11.0 0.00 0.36 0.00 36 1014.8
20260831164515 68 321 1.0 17.0 0.00 0.36 0.00 36 1014.7
20260831163022 68 318 0.0 17.0 0.00 0.36 0.00 38 1014.6
20260831161524 67 307 1.0 16.0 0.00 0.36 0.00 39 1014.4
20260831160013 66 295 0.0 7.0 0.00 0.36 0.00 42 1014.5
20260831154609 63 255 0.0 1.0 0.00 0.36 0.00 48 1014.5
20260831153055 62 247 0.0 1.0 0.00 0.36 0.00 51 1014.5
20260831151548 59 302 0.0 1.0 0.00 0.36 0.00 55 1014.6
20260831150044 58 296 0.0 5.0 0.00 0.36 0.00 56 1014.7
20260831144540 57 246 0.0 6.0 0.00 0.36 0.00 60 1014.6
20260831143046 56 304 0.0 0.0 0.00 0.36 0.00 61 1014.2
20260831141529 54 263 0.0 0.0 0.00 0.36 0.00 63 1014.2
20260831140030 53 229 0.0 0.0 0.00 0.36 0.00 67 1014.1
20260831134523 51 302 0.0 0.0 0.00 0.36 0.00 69 1014.0
20260831133019 50 293 0.0 0.0 0.00 0.36 0.00 72 1013.8
20260831131530 48 280 0.0 0.0 0.00 0.36 0.00 74 1013.5
20260831130010 0 0.0 0.0 0.00 0.36 0.00 1013.2
20260831124506 0 0.0 0.0 0.00 0.36 0.00 1013.1
20260831123002 0 0.0 0.0 0.00 0.36 0.00 1012.9
20260831121556 0 0.0 0.0 0.00 0.36 0.00 1012.8
20260831120051 0 0.0 0.0 0.00 0.36 0.00 1012.8
20260831114548 48 283 0.0 0.0 0.00 0.36 0.00 76 1012.7
20260831113047 47 289 0.0 0.0 0.00 0.36 0.00 76 1012.6
20260831111543 46 255 0.0 0.0 0.00 0.36 0.00 78 1012.6
20260831110041 48 297 0.0 0.0 0.00 0.36 0.00 77 1012.4
20260831104541 49 299 0.0 0.0 0.00 0.36 0.00 73 1012.4
20260831103039 50 295 0.0 0.0 0.00 0.36 0.00 69 1012.2
20260831101536 51 288 0.0 0.0 0.00 0.36 0.00 68 1012.1
20260831100032 51 262 0.0 0.0 0.00 0.36 0.00 70 1012.1
20260831094531 51 301 0.0 0.0 0.00 0.36 0.00 69 1011.9
20260831093030 51 264 0.0 0.0 0.00 0.36 0.00 70 1011.8
20260831091530 49 273 0.0 0.0 0.00 0.36 0.00 76 1011.8
20260831091527 49 290 0.0 0.0 0.00 0.36 0.00 76 1011.8
20260831090018 49 260 0.0 0.0 0.00 0.36 0.00 76 1011.7
20260831084515 49 274 0.0 0.0 0.00 0.36 0.00 79 1011.4
20260831083026 48 264 0.0 0.0 0.00 0.36 0.00 83 1011.3
20260831080007 48 219 0.0 0.0 0.00 0.36 0.00 85 1011.0
20260831074506 47 265 0.0 0.0 0.00 0.36 0.00 89 1010.8
20260831073009 48 242 0.0 0.0 0.00 0.36 0.00 88 1010.5
20260831070059 50 229 0.0 0.0 0.00 0.36 0.00 84 1010.3
20260831064555 51 232 0.0 0.0 0.00 0.36 0.00 82 1010.3
20260831063053 53 292 0.0 0.0 0.00 0.36 0.36 77 1010.2
20260831060110 51 289 0.0 0.0 0.00 0.36 0.36 87 1010.2
20260831054557 52 279 0.0 0.0 0.00 0.36 0.36 82 1010.1
20260831053058 55 242 0.0 0.0 0.00 0.36 0.36 74 1010.0
20260831051555 55 300 0.0 0.0 0.00 0.36 0.36 74 1009.9
20260831050050 55 286 0.0 0.0 0.00 0.36 0.36 77 1010.0
20260831044551 57 278 0.0 0.0 0.00 0.36 0.36 72 1009.8
20260831043049 57 292 0.0 0.0 0.00 0.36 0.36 72 1009.7
20260831041641 58 286 0.0 0.0 0.00 0.36 0.36 71 1009.5
20260831040046 58 286 0.0 0.0 0.00 0.36 0.36 71 1009.3
20260831034544 60 286 0.0 0.0 0.00 0.36 0.36 65 1009.3
20260831033044 61 152 0.0 0.0 0.00 0.36 0.36 65 1009.1
20260831031544 62 152 0.0 0.0 0.00 0.36 0.36 61 1008.9
20260831030045 63 152 0.0 0.0 0.00 0.36 0.36 60 1008.7
20260831024557 65 152 0.0 0.0 0.00 0.36 0.36 54 1008.4
20260831023040 62 153 0.0 0.0 0.00 0.36 0.36 64 1008.0
20260831021548 63 169 0.0 0.0 0.00 0.36 0.36 67 1007.7
20260831020012 64 217 0.0 0.0 0.00 0.36 0.36 64 1007.5
20260831014518 66 50 0.0 0.0 0.00 0.36 0.36 60 1007.3
20260831013039 68 6 0.0 0.0 0.00 0.36 0.36 54 1007.2
20260831011550 69 47 0.0 0.0 0.00 0.36 0.36 51 1007.3
20260831010043 70 21 0.0 0.0 0.00 0.36 0.36 47 1007.3
20260831004535 71 30 0.0 0.0 0.00 0.36 0.36 47 1007.5
20260831003037 71 39 0.0 0.0 0.00 0.36 0.36 45 1007.2
20260831001536 71 39 0.0 0.0 0.00 0.36 0.36 45 1007.1
20260831000033 71 15 0.0 0.0 0.00 0.36 0.36 45 1007.0
20260830234530 71 32 0.0 13.0 0.00 0.36 0.36 48 1006.9
20260830233034 72 15 0.0 5.0 0.00 0.36 0.36 41 1006.9
20260830231528 73 304 7.0 18.0 0.00 0.36 0.36 36 1006.9
20260830230058 73 283 10.0 16.0 0.00 0.36 0.36 27 1006.9
20260830224552 71 288 0.0 0.0 0.00 0.36 0.36 45 1006.9
20260830223116 71 283 0.0 0.0 0.00 0.36 0.36 47 1007.2
20260830221552 70 219 0.0 2.0 0.00 0.36 0.36 46 1007.3
20260830220043 69 287 0.0 0.0 0.00 0.36 0.36 51 1007.5
20260830214540 68 280 0.0 0.0 0.00 0.36 0.36 56 1007.7